• In Denmark
  • List of Countries
  • For 7 days
  • Water Temperature
  • Satellite Maps
  • Weather Map
  • Weather Widgets
  • user-avatar
    Login

    Hourly Weather Basshi

    Today, 21 August, Tuesday

    Time Temperature Precipitation Wind Pressure Humidity
    00:00 +26°C° 0.1 mm 4 mps 676 mmHg 34%
    01:00 +26°C° 0.1 mm 5 mps 676 mmHg 37%
    02:00 +25°C° 0.1 mm 5 mps 677 mmHg 39%
    03:00 +23°C° 0.1 mm 6 mps 677 mmHg 46%
    04:00 +22°C° 0.1 mm 6 mps 678 mmHg 53%
    05:00 +21°C° 0 mm 5 mps 678 mmHg 63%
    06:00 +21°C° 0.8 mm 5 mps 678 mmHg 65%
    07:00 +21°C° 0.8 mm 5 mps 679 mmHg 66%
    08:00 +20°C° 0.8 mm 5 mps 679 mmHg 68%
    09:00 +21°C° 0.1 mm 4 mps 679 mmHg 63%
    10:00 +22°C° 0.1 mm 4 mps 679 mmHg 58%
    11:00 +22°C° 0 mm 4 mps 680 mmHg 56%
    12:00 +23°C° 0 mm 4 mps 680 mmHg 53%
    13:00 +23°C° 0 mm 4 mps 680 mmHg 51%
    14:00 +25°C° 0 mm 4 mps 680 mmHg 48%
    15:00 +25°C° 0 mm 4 mps 680 mmHg 47%
    16:00 +25°C° 0 mm 4 mps 680 mmHg 46%
    17:00 +25°C° 0 mm 4 mps 680 mmHg 45%
    18:00 +23°C° 0 mm 4 mps 680 mmHg 48%
    19:00 +22°C° 0 mm 4 mps 680 mmHg 51%
    20:00 +21°C° 0 mm 3 mps 680 mmHg 53%
    21:00 +21°C° 0.1 mm 3 mps 680 mmHg 54%
    22:00 +20°C° 0.1 mm 3 mps 680 mmHg 55%
    23:00 +20°C° 0.1 mm 2 mps 680 mmHg 56%

    Tomorrow, 22 August, Wednesday

    Time Temperature Precipitation Wind Pressure Humidity
    00:00 +19°C° 0.1 mm 2 mps 680 mmHg 57%
    01:00 +19°C° 0.1 mm 2 mps 680 mmHg 59%
    02:00 +18°C° 0.1 mm 2 mps 680 mmHg 60%
    03:00 +19°C° 0 mm 1 mps 680 mmHg 61%
    04:00 +19°C° 0 mm 1 mps 680 mmHg 61%
    05:00 +18°C° 0 mm 1 mps 680 mmHg 62%
    06:00 +19°C° 0 mm 1 mps 680 mmHg 59%
    07:00 +20°C° 0 mm 1 mps 680 mmHg 55%
    08:00 +21°C° 0 mm 1 mps 680 mmHg 52%
    09:00 +22°C° 0 mm 1 mps 680 mmHg 50%
    10:00 +23°C° 0 mm 1 mps 680 mmHg 47%
    11:00 +24°C° 0 mm 2 mps 680 mmHg 45%
    12:00 +25°C° 0 mm 2 mps 680 mmHg 43%
    13:00 +25°C° 0 mm 2 mps 680 mmHg 40%
    14:00 +26°C° 0 mm 3 mps 680 mmHg 38%
    15:00 +26°C° 0 mm 3 mps 680 mmHg 37%
    16:00 +26°C° 0 mm 3 mps 680 mmHg 36%
    17:00 +26°C° 0 mm 4 mps 680 mmHg 36%
    18:00 +25°C° 0 mm 3 mps 680 mmHg 38%
    19:00 +22°C° 0 mm 3 mps 680 mmHg 40%
    20:00 +21°C° 0 mm 3 mps 680 mmHg 43%
    21:00 +20°C° 0 mm 3 mps 680 mmHg 44%
    22:00 +20°C° 0 mm 2 mps 680 mmHg 45%
    23:00 +19°C° 0 mm 2 mps 680 mmHg 46%

    Day after tomorrow, 23 August, Thursday

    Time Temperature Precipitation Wind Pressure Humidity
    00:00 +19°C° 0 mm 2 mps 680 mmHg 48%
    01:00 +19°C° 0 mm 1 mps 679 mmHg 49%
    02:00 +19°C° 0 mm 1 mps 679 mmHg 50%
    03:00 +19°C° 0 mm 1 mps 679 mmHg 51%
    04:00 +18°C° 0 mm 2 mps 679 mmHg 51%
    05:00 +17°C° 0 mm 2 mps 679 mmHg 52%
    06:00 +19°C° 0 mm 2 mps 679 mmHg 49%
    07:00 +20°C° 0 mm 2 mps 679 mmHg 45%
    08:00 +21°C° 0 mm 2 mps 679 mmHg 42%
    09:00 +23°C° 0 mm 2 mps 679 mmHg 40%
    10:00 +24°C° 0 mm 2 mps 679 mmHg 38%
    11:00 +25°C° 0 mm 2 mps 679 mmHg 36%
    12:00 +26°C° 0 mm 2 mps 679 mmHg 33%
    13:00 +27°C° 0 mm 2 mps 679 mmHg 30%
    14:00 +28°C° 0 mm 2 mps 679 mmHg 27%
    15:00 +28°C° 0 mm 2 mps 679 mmHg 27%
    16:00 +28°C° 0 mm 3 mps 679 mmHg 26%
    17:00 +28°C° 0 mm 3 mps 679 mmHg 26%
    18:00 +26°C° 0 mm 3 mps 679 mmHg 29%
    19:00 +25°C° 0 mm 2 mps 679 mmHg 32%
    20:00 +23°C° 0 mm 2 mps 679 mmHg 35%
    21:00 +23°C° 0 mm 2 mps 678 mmHg 37%
    22:00 +22°C° 0 mm 1 mps 678 mmHg 39%
    23:00 +22°C° 0 mm 1 mps 678 mmHg 41%

    24 August, Friday

    Time Temperature Precipitation Wind Pressure Humidity
    00:00 +20°C° 0 mm 2 mps 677 mmHg 42%
    01:00 +20°C° 0 mm 2 mps 677 mmHg 43%
    02:00 +20°C° 0 mm 2 mps 677 mmHg 45%
    03:00 +19°C° 0 mm 2 mps 676 mmHg 47%
    04:00 +19°C° 0 mm 2 mps 676 mmHg 49%
    05:00 +18°C° 0 mm 3 mps 676 mmHg 51%
    06:00 +20°C° 0 mm 3 mps 676 mmHg 47%
    07:00 +21°C° 0 mm 3 mps 677 mmHg 43%
    08:00 +24°C° 0 mm 3 mps 677 mmHg 39%
    09:00 +25°C° 0 mm 3 mps 677 mmHg 35%
    10:00 +26°C° 0 mm 3 mps 677 mmHg 32%
    11:00 +27°C° 0 mm 3 mps 677 mmHg 28%
    12:00 +28°C° 0 mm 3 mps 677 mmHg 26%
    13:00 +28°C° 0 mm 3 mps 677 mmHg 24%
    14:00 +29°C° 0 mm 2 mps 676 mmHg 23%
    15:00 +29°C° 0 mm 3 mps 677 mmHg 23%
    16:00 +29°C° 0 mm 4 mps 677 mmHg 24%
    17:00 +28°C° 0 mm 5 mps 677 mmHg 24%
    18:00 +27°C° 0 mm 4 mps 677 mmHg 27%
    19:00 +26°C° 0 mm 4 mps 677 mmHg 30%
    20:00 +25°C° 0 mm 3 mps 678 mmHg 32%
    21:00 +24°C° 0 mm 3 mps 678 mmHg 33%
    22:00 +24°C° 0 mm 3 mps 678 mmHg 33%
    23:00 +23°C° 0 mm 2 mps 678 mmHg 34%

    25 August, Saturday

    Time Temperature Precipitation Wind Pressure Humidity
    00:00 +23°C° 0 mm 2 mps 677 mmHg 35%
    01:00 +21°C° 0 mm 2 mps 677 mmHg 36%
    02:00 +21°C° 0 mm 2 mps 677 mmHg 38%
    03:00 +20°C° 0 mm 2 mps 677 mmHg 38%
    04:00 +20°C° 0 mm 2 mps 677 mmHg 39%
    05:00 +20°C° 0 mm 2 mps 677 mmHg 39%
    06:00 +21°C° 0 mm 3 mps 677 mmHg 37%
    07:00 +22°C° 0 mm 3 mps 677 mmHg 35%
    08:00 +25°C° 0 mm 4 mps 678 mmHg 33%
    09:00 +26°C° 0 mm 4 mps 677 mmHg 31%
    10:00 +27°C° 0 mm 4 mps 677 mmHg 29%
    11:00 +28°C° 0 mm 4 mps 677 mmHg 28%
    12:00 +28°C° 0 mm 4 mps 677 mmHg 26%
    13:00 +29°C° 0 mm 3 mps 676 mmHg 25%
    14:00 +29°C° 0 mm 3 mps 676 mmHg 24%
    15:00 +29°C° 0 mm 3 mps 676 mmHg 24%
    16:00 +29°C° 0 mm 3 mps 676 mmHg 24%
    17:00 +29°C° 0 mm 3 mps 676 mmHg 25%
    18:00 +27°C° 0 mm 2 mps 676 mmHg 28%
    19:00 +26°C° 0 mm 2 mps 676 mmHg 32%
    20:00 +24°C° 0 mm 2 mps 676 mmHg 36%
    21:00 +24°C° 0 mm 1 mps 675 mmHg 37%
    22:00 +23°C° 0 mm 1 mps 675 mmHg 38%
    23:00 +23°C° 0 mm 1 mps 675 mmHg 39%

    26 August, Sunday

    Time Temperature Precipitation Wind Pressure Humidity
    00:00 +22°C° 0 mm 1 mps 674 mmHg 40%
    01:00 +22°C° 0 mm 1 mps 674 mmHg 40%
    02:00 +22°C° 0 mm 1 mps 673 mmHg 40%
    03:00 +21°C° 0 mm 1 mps 673 mmHg 41%
    04:00 +21°C° 0 mm 1 mps 673 mmHg 41%
    05:00 +20°C° 0 mm 1 mps 673 mmHg 41%
    06:00 +22°C° 0 mm 1 mps 674 mmHg 37%
    07:00 +23°C° 0 mm 1 mps 674 mmHg 33%
    08:00 +25°C° 0 mm 1 mps 674 mmHg 30%
    09:00 +26°C° 0 mm 2 mps 675 mmHg 28%
    10:00 +27°C° 0 mm 3 mps 675 mmHg 27%
    11:00 +28°C° 0 mm 4 mps 675 mmHg 26%
    12:00 +28°C° 0 mm 5 mps 675 mmHg 28%
    13:00 +28°C° 0 mm 5 mps 675 mmHg 30%
    14:00 +28°C° 0 mm 6 mps 675 mmHg 31%
    15:00 +27°C° 0 mm 6 mps 675 mmHg 32%
    16:00 +26°C° 0 mm 7 mps 676 mmHg 32%
    17:00 +26°C° 0 mm 7 mps 676 mmHg 33%
    18:00 +24°C° 0 mm 6 mps 676 mmHg 34%
    19:00 +22°C° 0 mm 6 mps 676 mmHg 35%
    20:00 +21°C° 0 mm 5 mps 677 mmHg 36%
    21:00 +20°C° 0 mm 5 mps 677 mmHg 36%
    22:00 +20°C° 0 mm 4 mps 677 mmHg 37%
    23:00 +19°C° 0 mm 4 mps 677 mmHg 38%
    Show more